Preview of NWS' New Version of Forecast
This preview is not operational and should not be used for support decisions.
Latest weather observations around

Santa Monica, Santa Monica Municipal Airport (KSMO)

Using English Units (Switch to International System of Units)
Date/ Time (PDT) Wind (mph) Vis. (mi) Weather Sky Cond. Temp (°F) Rel. Humidity Wind Chill (°F) Heat Index (°F) Pressure Precip. (in)
Air Dwpt 6 hour Altimeter (inHg) Sea level (inHg) 1 hr 3 hr 6 hr
Max Min
Oct 15 05:51 NE 3 10 Clear CLR 60 54     80%     30.03 30.03      
Oct 15 04:51 NE 3 10 Clear CLR 60 55     83%     30.01 30.01      
Oct 15 03:51 N 3 10 Clear CLR 62 56     80%     30 29.99      
Oct 15 02:51 N 3 10 Clear CLR 63 57     81%     30.01 30      
Oct 15 01:51 NE 3 10 Clear CLR 63 57     81%     30.01 30      
Oct 15 00:51 Calm 10 Clear CLR 64 57     78%     30 29.99      
Oct 14 23:51 NNE 3 10 Clear CLR 65 58     78%     30 29.99      
Oct 14 22:51 Calm 10 Clear CLR 66 58     75%     29.98 29.98      
Oct 14 21:51 Calm 10 Clear   67 59     76%     29.97 29.97      
Oct 14 20:51 WSW 3 10 Clear CLR 68 60     76%     29.96 29.95      
Oct 14 19:51 SW 3 10 Clear CLR 68 59     73%     29.95 29.94      
Oct 14 18:51 6 10 Clear CLR 68 59     73%     29.93 29.93      
Oct 14 17:51 WSW 5 10 Clear CLR 70 59     68%     29.92 29.92      
Oct 14 16:51 SW 10 10 Clear CLR 71 58     63%   71 29.93 29.92      
Oct 14 15:51 SW 9 10 Clear CLR 71 58     63%   71 29.93 29.93      
Oct 14 14:51 SW 9 10 Mostly Clear FEW016 72 59     64%   72 29.94 29.93      
Oct 14 13:51 WSW 8 10 Partly Cloudy SCT016 72 59     64%   72 29.94 29.93      
Oct 14 12:51 WSW 8 10 Mostly Cloudy BKN016 71 59     66%   71 29.96 29.95      
Oct 14 12:47 WSW 9 10 Mostly Cloudy SCT016 BKN036 72 59     65%   71 29.96        
Oct 14 12:40 WSW 8 10 Mostly Cloudy BKN016 BKN036 72 59     64%   72 29.96        
Oct 14 11:51 WSW 7 10 Mostly Cloudy FEW016 BKN036 71 59     66%   71 29.97 29.96      
Oct 14 10:51 SSW 7 10 Partly Cloudy FEW016 SCT037 71 59     66%   71 29.97 29.96      
Oct 14 10:14 WSW 5 10 Mostly Cloudy FEW012 BKN035 70 59     68%     29.97        
Oct 14 09:51 WSW 3 10 Mostly Cloudy FEW012 BKN035 69 59     70%     29.97 29.97      
Oct 14 08:51 Calm 10 Cloudy FEW012 OVC035 68 58     70%     29.96 29.96      
Oct 14 07:51 Calm 10 Cloudy OVC035 66 58     75%     29.94 29.94      
Oct 14 06:51 Calm 10 Cloudy OVC035 64 58     81%     29.92 29.92      
Oct 14 05:51 Calm 10 Cloudy FEW013 OVC036 63 57     81%     29.91 29.91      
Oct 14 04:51 Calm 10 Clear CLR 63 57     81%     29.9 29.89      
Oct 14 03:51 Calm 10 Clear CLR 64 58     81%     29.89 29.88      
Oct 14 02:51 WSW 3 10 Clear CLR 66 60     81%     29.9 29.89      
Oct 14 01:51 SW 5 10 Cloudy OVC038 67 60     79%     29.9 29.89      
Oct 14 00:59 Calm 10 Cloudy FEW014 OVC037 67 60     79%     29.9        
Oct 14 00:51 Calm 10 Cloudy SCT014 BKN027 OVC036 67 60     79%     29.9 29.89      
Oct 14 00:48 Calm 10 Cloudy BKN014 BKN027 OVC036 66 61     83%     29.9        
Oct 14 00:35 Calm 10 Cloudy FEW013 BKN026 OVC038 67 60     79%     29.9        
Oct 14 00:24 Calm 10 Cloudy FEW009 BKN014 OVC039 66 59     78%     29.9        
Oct 13 23:51 Calm 10 Cloudy FEW026 SCT033 OVC040 65 59     81%     29.91 29.9      
Oct 13 22:51 Calm 10 Clear CLR 66 60     81%     29.91 29.9      
Oct 13 22:37 Calm 10 Partly Cloudy SCT016 66 60     81%     29.91        
Oct 13 22:26 Calm 10 Mostly Cloudy BKN016 67 60     79%     29.91        
Oct 13 21:51 Calm 10 Partly Cloudy SCT048 67 60     79%     29.91 29.9      
Oct 13 20:51 SW 3 10 Clear CLR 67 60     79%     29.9 29.89      
Oct 13 19:51 SW 3 10 Clear CLR 68 59     73%     29.89 29.88      
Oct 13 18:58 SW 5 10 Partly Cloudy SCT044 68 59     73%     29.88        
Oct 13 18:51 SW 3 10 Mostly Cloudy BKN022 68 59     73%     29.88 29.87      
Oct 13 17:51 SW 8 10 Cloudy OVC023 70 59     68%     29.87 29.86      
Oct 13 17:22 SSW 9 10 Mostly Cloudy FEW014 BKN021 70 59     68%     29.87        
Oct 13 16:51 SW 10 10 Partly Cloudy SCT016 70 59     68%     29.86 29.85      
Oct 13 15:51 SW 11 10 Mostly Clear FEW016 72        %     29.86 29.85      
Oct 13 14:51 WSW 10 10 Clear CLR 73 57     57%   73 29.85 29.85      
Oct 13 13:59 SW 9 10 Mostly Cloudy FEW018 BKN042 70 57     63%     29.87        
Oct 13 13:51 W 7 10 Cloudy SCT018 BKN029 OVC041 71 58     63%   71 29.87 29.86      
Oct 13 12:51 SW 9 10 Mostly Cloudy FEW021 BKN030 70 56     61%     29.89 29.88      
Oct 13 12:35 SW 10 10 Cloudy SCT021 OVC030 72        %     29.89        
Oct 13 11:51 SW 7 10 Mostly Cloudy BKN019 68        %     29.9 29.9      
Oct 13 10:51 SW 6 10 Partly Cloudy SCT019 68        %     29.91 29.91     0
Oct 13 10:26 WSW 5 10 Mostly Cloudy BKN020 66        %     29.92        
Oct 13 09:51 WSW 3 10 Mostly Cloudy SCT048 BKN110 66        %     29.92 29.91 0    
Oct 13 08:51 WSW 5 10 Light Rain SCT041 OVC090 66        %     29.91 29.9 0    
Oct 13 07:51 W 6 6 Light Rain SCT041 OVC090 66        %     29.88 29.88 0 0  
Oct 13 07:35 W 7 8 Light Rain FEW008 OVC040 66        %     29.88   0    
Oct 13 06:51 WSW 8 7 Light Rain SCT011 BKN040 OVC090 66        %     29.86 29.85 0    
Oct 13 05:51 SW 6 10 Light Rain SCT015 SCT038 BKN080 66        %     29.86 29.85 0    
Oct 13 02:51 SW 6 10 Light Rain OVC011 66        %     29.84 29.83 0    
Oct 13 02:47 SW 7 10 Cloudy OVC011 66        %     29.84   0    
Oct 13 02:16 SW 6 10 Cloudy FEW004 BKN007 OVC100 66        %     29.84   0    
Oct 12 23:51 NNE 5 10 Cloudy FEW006 OVC100 66        %     29.87 29.86 0    
Oct 12 23:02 E 6 7 Light Rain BKN007 BKN075 OVC090 68        %     29.88   0    
Oct 12 21:28 SSE 7 6 Rain FEW008 BKN016 OVC100 68        %     29.86   0    
Oct 12 21:19 SW 5 4 Rain SCT014 BKN060 OVC100 68        %     29.84   0    
Oct 12 14:51 WSW 10 10 Clear CLR 74 57     56%   74 29.73 29.72      
Oct 12 05:51 NNW 3 10 Clear CLR 62 49     62%     29.8 29.79      
Oct 12 03:51 Calm 10 Clear CLR 63 49     60%     29.8 29.8      
Oct 11 22:51 NW 3 10 Clear CLR 66 49     54%     29.82 29.81      
Oct 11 19:51 WSW 6 10 Clear CLR 69 53     57%     29.81 29.8      
Oct 11 18:51 7 10 Clear CLR 70 51     51%     29.8 29.79      
Oct 11 14:51 SW 14 10 Clear CLR 73 48     41%   72 29.81 29.8      
Oct 11 09:51 Calm 10 Mostly Clear FEW055 71 47     42%   70 29.88 29.87      
Oct 10 23:51 Calm 10 Cloudy OVC048 67 52     59%     29.86 29.86      
Oct 10 22:51 Calm 10 Cloudy OVC046 67 51     57%     29.86 29.85      
Oct 10 08:51 Calm 10 Mostly Cloudy BKN031 69 51     53%     29.86 29.85      
Oct 10 01:51 Calm 10 Mostly Cloudy BKN022 66 57     73%     29.86 29.86      
Notice The following observation data may not be complete
Oct 10 00:26   10 Cloudy OVC016          %              
Oct 09 23:51 Calm 10 Cloudy OVC013 66 57     73%     29.85 29.84      
Oct 09 14:51 WSW 10 10 Mostly Clear FEW018 73 58     59%   73 29.82 29.81      
Oct 09 05:51 Calm 10 Cloudy OVC026 69 56     63%     29.84 29.83      
Oct 09 02:51 Calm 10 Cloudy OVC021 68 56     65%     29.85 29.84      
Oct 08 17:51 SW 7 10 Mostly Clear FEW014 70 60     71%     29.79 29.78      
Oct 08 14:51 WSW 9 10 Clear CLR 74 58     57%   74 29.8 29.79      
Oct 08 10:58 S 7 10 Cloudy OVC026 73        %     29.86        
Oct 08 08:51 NE 3 10 Clear   72        %     29.85 29.84      
Oct 08 04:51 Calm 10 Partly Cloudy SCT020 66        %     29.82 29.81      
Oct 08 02:51 NNE 3 10 Cloudy BKN017 OVC021 64        %     29.82 29.82      
Oct 08 02:24 Calm 10 Mostly Cloudy FEW012 BKN024 64        %     29.83        
Oct 08 01:28 N 3 10 Mostly Cloudy BKN014 BKN021 64        %     29.83        
Oct 07 23:51 N 3 10 Clear CLR 64        %     29.82 29.82      
Oct 07 21:51 Calm 10 Clear CLR 68        %     29.81 29.8      
Oct 07 20:51 Calm 10 Clear CLR 70        %     29.8 29.79      
Oct 07 14:51 SW 11 10 Partly Cloudy SCT017 74 59     60%   74 29.77 29.77      
Oct 07 12:51 SSW 11 10 Mostly Clear FEW016 74 60     62%   74 29.79 29.78      
Oct 07 11:51 SW 8 10 Clear   74 60     62%   74 29.81 29.81      
Oct 07 09:04 NE 3 9 Partly Cloudy SCT013 70 60     71%     29.82        
Oct 07 08:51 E 3 9 Mostly Cloudy BKN012 69 60     73%     29.82 29.82      
Oct 07 02:51 WNW 3 10 Mostly Clear FEW017 65 58     78%     29.77 29.76      
Oct 07 02:44 WNW 3 10 Mostly Clear FEW017 65 58     78%     29.77        
Notice The following observation data may not be complete
Oct 07 02:26   10 Partly Cloudy FEW016 SCT026          %              
Oct 06 22:23 Calm 10 Partly Cloudy FEW017 SCT028 69 60     73%     29.78        
Oct 06 22:13 SW 3 10 Mostly Cloudy SCT017 BKN028 69 60     73%     29.76        
Oct 06 15:51 SW 9 10 Cloudy BKN018 OVC050 73 61     66%   73 29.77 29.76      
Oct 06 13:51 WSW 10 10 Cloudy BKN016 OVC031 73 61     66%   73 29.79 29.78      
Oct 06 11:51 SW 9 10 Clear CLR 74 62     66%   74 29.83 29.83      
Oct 06 08:51 5 10 Partly Cloudy SCT019 72 60     66%   72 29.85 29.85      
Oct 06 06:32 Calm 9 Cloudy BKN008 OVC013 66 61     84%     29.84        
Oct 06 04:51 Calm 10 Clear CLR 65 57     76%     29.82 29.81      
Oct 06 02:51 Calm 10 Clear CLR 66 59     78%     29.85 29.84      
Oct 06 01:51 Calm 10 Clear CLR 66 60     81%     29.86 29.85      
Oct 05 22:51 Calm 10 Clear CLR 68 60     76%     29.88 29.88      
Oct 05 15:51 SW 9 10 Clear CLR 73 60     64%   73 29.91 29.9      
Oct 05 14:51 7 10 Clear CLR 74 60     62%   74 29.91 29.91      
Oct 05 10:51 SW 8 10 Mostly Clear FEW017 73 60     64%   73 29.99 29.98      
Oct 05 06:42 Calm 10 Mostly Cloudy BKN015 65 60     84%     29.98        
Oct 05 05:51 Calm 10 Clear CLR 64 59     84%     29.97 29.97      
Oct 05 05:07 Calm 10 Partly Cloudy SCT009 64 59     84%     29.97        
Oct 05 04:51 Calm 10 Clear CLR 65 59     81%     29.97 29.96      
Oct 05 03:51 NE 3 10 Clear CLR 65 59     81%     29.96 29.96      
Oct 05 02:51 SE 6 10 Clear CLR 67 61     81%     29.96 29.96      
Oct 05 01:51 ENE 3 10 Clear CLR 65 59     81%     29.98 29.97      
Oct 05 00:51 SW 5 10 Clear CLR 67 60     79%     29.96 29.96      
Oct 04 23:51 Calm 10 Clear CLR 68 61     78%     29.97 29.96      
Oct 04 22:51 WSW 3 10 Clear CLR 69 61     75%     29.97 29.96      
Oct 04 21:51 SW 5 10 Clear CLR 69 61     75%     29.96 29.95      
Oct 04 20:51 Calm 10 Mostly Clear FEW080 70 62     76%     29.96 29.95      
Oct 04 19:51 SSW 6 10 Clear CLR 69 62     78%     29.95 29.94      
Oct 04 18:51 WSW 7 10 Clear CLR 70 61     73%     29.95 29.94      
Oct 04 17:51 WSW 9 10 Clear CLR 72 61     68%   72 29.95 29.94      
Oct 04 16:51 WSW 9 10 Clear CLR 73 60     64%   73 29.95 29.94      
Oct 04 15:51 WSW 14 10 Clear CLR 74 60     62%   74 29.96 29.95      
Oct 04 14:51 WSW 10 10 Clear CLR 75 60     60%   75 29.96 29.95      
Oct 04 13:51 WSW 11 10 Clear CLR 76 59     56%   76 29.97 29.97      
Oct 04 12:51 WSW 10 10 Mostly Clear FEW030 75 60     60%   75 29.99 29.98      
Oct 04 11:51 WSW 10 10 Clear CLR 75 60     60%   75 30 29.99      
Oct 04 10:51 SW 8 10 Mostly Cloudy SCT024 BKN049 75 60     60%   75 30 30      
Oct 04 09:51 Calm 10 Mostly Cloudy BKN048 75 60     60%   75 30.01 30.01      
Oct 04 08:51 Calm 10 Partly Cloudy SCT015 71 61     70%   71 30.01 30      
Oct 04 08:23 Calm 10 Partly Cloudy SCT013 70 61     73%     30        
Oct 04 07:51 WNW 5 10 Cloudy OVC013 68 61     78%     29.99 29.99      
Oct 04 06:54 Calm 10 Cloudy SCT009 OVC013 68 61     78%     29.97        
Oct 04 06:51 Calm 10 Cloudy OVC011 68 61     78%     29.97 29.97      
Oct 04 05:51 NW 3 10 Cloudy OVC007 66 59     78%     29.96 29.95      
Oct 04 05:42 Calm 10 Cloudy OVC005 66 60     81%     29.96        
Oct 04 04:51 Calm 9 Cloudy OVC003 67 63     87%     29.94 29.93      
Oct 04 04:36 Calm 10 Mostly Cloudy BKN003 67 62     84%     29.94        
Oct 04 04:27 Calm 10 Partly Cloudy SCT003 67 62     84%     29.94        
Oct 04 03:51 Calm 10 Clear CLR 67 63     87%     29.93 29.93      
Oct 04 02:51 Calm 10 Clear CLR 68 63     84%     29.94 29.93      
Oct 04 02:01 Calm 10 Partly Cloudy SCT007 SCT060 69 63     81%     29.94        
Oct 04 01:51 Calm 10 Mostly Cloudy BKN007 BKN060 69 63     81%     29.95 29.94      
Oct 04 01:00 Calm 10 Cloudy BKN006 OVC090 69 64     84%     29.95        
Oct 04 00:51 WSW 3 10 Cloudy SCT006 OVC090 69 64     84%     29.95 29.94      
Oct 04 00:42 WSW 3 10 Cloudy FEW006 SCT065 OVC090 69 64     84%     29.94        
Oct 03 23:51 WSW 3 10 Cloudy OVC065 70 64     81%     29.95 29.94      
Oct 03 23:20 WSW 6 10 Cloudy SCT009 OVC070 70 64     81%     29.95        
Oct 03 23:01 WSW 7 10 Cloudy BKN009 OVC070 70 64     81%     29.95        
Oct 03 22:51 WSW 5 10 Cloudy SCT007 BKN014 OVC065 70 65     84%     29.94 29.94 0   0
Oct 03 22:41 WSW 3 10 Light Rain FEW007 SCT013 OVC060 70 65     84%     29.95   0    
Oct 03 21:51 WSW 5 10 Mostly Cloudy SCT017 SCT030 BKN060 71 63     76%   71 29.94 29.94      
Oct 03 20:51 SW 5 10 Cloudy FEW041 OVC060 71 62     73%   71 29.93 29.92      
Oct 03 20:25 WSW 3 10 Cloudy SCT029 BKN042 OVC060 72 63     73%   72 29.92        
Oct 03 20:16 WSW 6 10 Cloudy BKN029 OVC060 72 63     73%   72 29.92        
Oct 03 19:51 W 3 10 Cloudy OVC060 72 63     73%   72 29.92 29.91   0  
Oct 03 18:51 WSW 3 10 Clear   72 64     76%   72 29.91 29.9      
Oct 03 17:51 SW 8 10 Light Rain SCT029 BKN060 72 64     76%   72 29.91 29.91 0    
Oct 03 16:51 SW 8 10 Partly Cloudy SCT060 73 63     71%   73 29.91 29.9      
Oct 03 15:51 SW 8 10 Clear CLR 73 63     71%   73 29.9 29.89      
May 15 07:51 SE 3 10 Mostly Cloudy BKN015 59 52     78%     30.04 30.04      
May 13 01:51 3 10 Cloudy FEW025 BKN032 OVC050 59 51     75%     30.01 30.01      
Notice The following observation data may not be complete
May 12 05:04   6 Light Rain and Fog/Mist FEW008 OVC020          %         0    
May 12 00:51 E 6 10 Cloudy BKN028 OVC044 59 53     81%     29.88 29.88      
May 11 18:51 SSW 6 10 Cloudy OVC026 60 54     80%     29.82 29.82      
May 11 12:51 3 10 Cloudy OVC023 61 53     75%     29.87 29.87      
Jun 11 14:51 WSW 11 10 Mostly Clear FEW022 67 54     63%     29.92 29.92      
Jun 11 03:51 SSW 3 10 Cloudy OVC013 62 57     84%     29.86 29.85      
Jun 10 14:51 WSW 8 10 Mostly Cloudy BKN016 67 58     73%     29.89 29.88      
Jun 09 19:51 SW 10 10 Partly Cloudy SCT009 64 60     87%     29.9 29.89      
Notice The following observation data may not be complete
Jun 09 09:51   10 Clear CLR          %              
Jun 09 03:42 Calm 10 Partly Cloudy SCT013 59 56     90%     29.94        
Jun 08 11:29 WSW 7 9 Cloudy BKN008 OVC013 62 59     90%     30.04        
Jun 08 10:48 WSW 7 10 Cloudy BKN008 OVC015 63 61     94%     30.03   0    
Jun 07 23:47 SW 7 4 Light Rain and Fog/Mist OVC003 61 61     100%     29.99   0    
Jun 07 09:51 SW 6 8 Cloudy FEW008 OVC010 63 59     87%     29.96 29.96